Location: Schommer Observatory
(40.5200°N, 74.4500°W)
Time: 22:59:31
(UTC-04:00)

OTV 5 (USA 277) - Visible Passes

Search period start: 24 May 2018 00:00
Search period end: 03 June 2018 00:00
Orbit: 308 x 326 km, 54.5° (Epoch: 06 May)

Date Brightness Start Highest point End Pass type
(mag) Time Alt. Az. Time Alt. Az. Time Alt. Az.
28 May ? 04:41:05 10° S 04:43:24 25° SE 04:45:44 10° ENE visible
29 May ? 04:54:58 10° SW 04:57:42 80° SE 05:00:27 10° NE visible
30 May ? 03:37:50 15° SE 03:38:04 15° SE 03:39:44 10° E visible
31 May ? 03:51:42 36° S 03:52:17 42° SE 03:54:55 10° ENE visible
01 Jun ? 04:05:31 29° WSW 04:06:39 57° NW 04:09:23 10° NE visible
02 Jun ? 02:48:24 16° E 02:48:24 16° E 02:49:13 10° ENE visible
02 Jun ? 04:19:15 12° W 04:21:11 23° NNW 04:23:29 10° NNE visible
